CST,Max TemperatureF,Mean TemperatureF,Min TemperatureF,Max Dew PointF,MeanDew PointF,Min DewpointF,Max Humidity, Mean Humidity, Min Humidity, Max Sea Level PressureIn, Mean Sea Level PressureIn, Min Sea Level PressureIn, Max VisibilityMiles, Mean VisibilityMiles, Min VisibilityMiles, Max Wind SpeedMPH, Mean Wind SpeedMPH, Max Gust SpeedMPH,PrecipitationIn, CloudCover, Events, WindDirDegrees
2014-1-1,58,52,46,56,49,42,93,85,77,30.26,30.12,30.02,10,7,2,9,5,10,0.01,8,Rain,339
2014-1-2,60,49,38,56,39,27,93,63,32,30.46,30.28,30.07,10,10,5,29,15,36,T,7,Rain,356
2014-1-3,60,46,32,45,36,25,92,72,51,30.46,30.34,30.16,10,10,10,17,10,21,0.00,1,,68
2014-1-4,74,60,45,59,53,44,96,75,53,30.12,29.98,29.87,10,9,0,24,12,31,0.00,4,Fog,171
2014-1-5,69,56,43,61,44,21,97,65,32,30.38,30.04,29.82,10,10,9,35,16,41,0.00,6,,342
2014-1-6,43,38,32,21,15,10,52,44,35,30.71,30.62,30.41,10,10,10,25,15,31,0.00,7,,8
2014-1-7,53,42,30,43,29,11,71,55,38,30.66,30.49,30.32,10,10,10,14,7,16,T,8,,44
2014-1-8,66,59,52,61,56,51,93,82,71,30.30,30.18,30.10,10,6,1,21,8,24,0.25,8,Rain,182
2014-1-9,67,64,61,65,62,60,93,90,87,30.16,30.10,30.03,10,6,1,20,10,24,0.33,8,Rain,160
2014-1-10,77,67,57,68,63,55,100,87,74,30.00,29.91,29.79,10,8,1,18,10,23,0.05,7,Rain,166
2014-1-11,79,65,50,57,49,37,100,62,23,30.15,30.03,29.90,10,8,0,18,8,22,0.00,3,Fog,192
2014-1-12,73,59,44,65,54,42,100,83,66,30.13,30.04,29.91,10,7,0,28,10,33,0.01,5,Fog-Rain,168
2014-1-13,77,62,46,63,49,29,100,60,19,30.17,30.00,29.87,10,8,0,29,12,35,0.00,2,Fog,314
2014-1-14,78,58,38,48,37,31,79,50,21,30.25,30.14,30.04,10,10,10,20,9,24,0.00,0,,228
2014-1-15,70,58,46,37,27,17,68,42,15,30.48,30.34,30.23,10,10,10,20,11,24,0.00,0,,6
2014-1-16,74,56,37,53,45,32,93,64,35,30.21,30.11,30.02,10,10,10,26,9,33,0.00,0,,172
2014-1-17,69,56,42,52,37,18,96,56,16,30.33,30.25,30.12,10,10,10,28,12,35,0.00,3,,56
2014-1-18,77,58,39,57,49,31,100,71,41,30.26,30.17,30.08,10,10,6,14,5,17,0.00,2,Fog,96
2014-1-19,74,59,43,53,47,40,100,67,33,30.30,30.21,30.14,10,5,0,14,7,18,0.00,4,Fog,20
2014-1-20,83,65,47,60,52,46,100,67,34,30.12,30.03,29.89,10,5,0,21,9,25,0.00,4,Fog,199
2014-1-21,70,57,43,48,27,19,80,48,15,30.41,30.27,30.07,10,10,10,29,14,35,0.00,2,,4
2014-1-22,74,54,33,51,37,21,89,58,27,30.25,30.13,30.03,10,10,10,22,7,31,0.00,2,,174
2014-1-23,75,58,40,59,48,32,93,75,57,30.54,30.22,30.00,10,10,10,38,17,46,T,6,Rain,65
2014-1-24,40,36,31,35,29,27,92,78,64,30.71,30.59,30.43,10,8,3,32,15,40,0.02,8,Snow,347
2014-1-25,65,47,29,40,32,26,92,59,26,30.40,30.23,30.08,10,10,10,14,6,18,0.00,4,,242
2014-1-26,80,58,35,58,48,34,93,64,35,30.06,29.90,29.77,10,10,7,20,10,22,0.00,1,Fog,175
2014-1-27,73,61,48,57,42,18,100,65,29,30.16,29.96,29.80,10,6,0,26,14,32,0.00,5,Fog,34
2014-1-28,48,42,36,25,18,13,59,44,29,30.46,30.30,30.13,10,10,10,25,18,31,T,8,Rain,5
2014-1-29,51,44,37,37,24,13,65,49,33,30.51,30.40,30.29,10,10,10,20,12,25,0.00,6,,41
2014-1-30,69,59,49,54,49,38,93,72,51,30.26,30.07,29.95,10,10,10,25,12,32,0.00,6,,152
2014-1-31,78,63,48,64,56,46,96,76,56,29.96,29.90,29.83,10,7,0,31,15,38,0.00,3,Fog,157